Portada
METAR-TAF:

METAR-TAF

Aeroports :

Penrhyn, Illes Cook

latitud: 9-00-52S, longitud: 158-01-57W, altitud: 2 m

Observació

L'informe es va fer fa 1 hora i 10 minuts, a les 11:00 UTC
Vent 6 kt del Est/Nord-Est
Temperatura 26°C
Humitat 89%
Pressió 1010 hPa

METAR: NCPY 231100Z AUTO 06006KT //// ////// 26/24 Q1010

Hora: 02:10 (12:10 UTC)


TAF: manca

Observacions i pronòstics meteorològics de més de 4000 aeroports (METAR i TAF).

Les estacions disponibles són els punts grocs i vermells al mapa.

Posi el ratolí al punt desitjat per veure el nom de l'estació.

Feu clic per veure les observacions i els pronòstics meteorològics.

Per canviar el mapa: feu clic els botons verds amb una creu de color negre per apropar; al botó verd amb un guió per allunyar la imatge; o en les fletxes verdes per a mapes adjacents.


METAR-TAF: